GW4015 Weather Reports


time (UTC)temp
F
wind
direction
speed
knots
gust
knots
rain 1hr
in
rain 24hr
in
rain mn
in
humidity
%
barometer
mb
20260906232600 64 358 3.5 6.1 0.00 0.02 0.02 78 1018.5
20260906232059 64 2 5.2 7.0 0.00 0.02 0.02 77 1018.5
20260906231554 64 357 4.3 7.8 0.00 0.02 0.02 78 1018.4
20260906231050 64 316 6.1 7.8 0.00 0.02 0.02 78 1018.7
20260906230548 64 342 2.6 4.3 0.00 0.02 0.02 78 1018.6
20260906230043 65 58 2.6 7.8 0.00 0.02 0.02 77 1018.7
20260906225536 65 2 2.6 4.3 0.00 0.02 0.02 77 1018.8
20260906225032 65 354 2.6 4.3 0.00 0.02 0.02 76 1019.0
20260906224528 64 19 0.9 4.3 0.00 0.02 0.02 77 1018.7
20260906224024 65 324 3.5 5.2 0.00 0.02 0.02 76 1019.0
20260906223520 65 27 3.5 4.3 0.00 0.02 0.02 78 1019.0
20260906223019 64 54 4.3 5.2 0.00 0.02 0.02 78 1018.8
20260906222508 64 356 3.5 7.0 0.00 0.02 0.02 79 1019.2
20260906222006 64 5 5.2 7.0 0.00 0.02 0.02 80 1018.8
20260906221504 63 27 7.0 10.4 0.00 0.02 0.02 80 1018.8
20260906221000 63 48 6.1 8.7 0.00 0.02 0.02 80 1019.1
20260906220454 63 29 11.3 12.2 0.00 0.02 0.02 80 1019.0
20260906215949 63 50 5.2 11.3 0.00 0.02 0.02 80 1019.0
20260906215448 63 15 6.1 13.0 0.00 0.02 0.02 80 1018.8
20260906214946 64 39 9.6 11.3 0.00 0.02 0.02 80 1018.8
20260906214445 63 32 7.8 13.0 0.00 0.02 0.02 80 1019.1
20260906213945 63 33 9.6 13.0 0.00 0.02 0.02 80 1019.2
20260906213440 63 46 10.4 13.0 0.00 0.02 0.02 80 1019.0
20260906212938 63 34 9.6 11.3 0.00 0.02 0.02 80 1019.0
20260906212433 63 41 9.6 14.8 0.00 0.02 0.02 81 1019.1
20260906211928 63 58 11.3 12.2 0.00 0.02 0.02 80 1019.1
20260906211428 63 32 11.3 14.8 0.00 0.02 0.02 80 1019.1
20260906210922 63 54 13.0 14.8 0.00 0.02 0.02 80 1019.1
20260906210413 63 52 11.3 15.6 0.00 0.02 0.02 80 1019.0
20260906205906 63 37 13.0 19.1 0.00 0.02 0.02 80 1019.1
20260906205403 62 41 7.0 13.9 0.00 0.02 0.02 81 1019.0
20260906204859 63 45 11.3 15.6 0.00 0.02 0.02 80 1019.2
20260906204357 63 43 6.1 13.0 0.00 0.02 0.02 80 1019.1
20260906203857 63 39 11.3 14.8 0.00 0.02 0.02 80 1019.2
20260906203352 63 47 9.6 14.8 0.00 0.02 0.02 80 1019.2
20260906202850 63 42 10.4 13.0 0.00 0.02 0.02 80 1019.1
20260906202343 63 44 10.4 15.6 0.00 0.02 0.02 80 1019.1
20260906201843 62 19 7.0 15.6 0.00 0.02 0.02 80 1019.2
20260906201338 62 6 5.2 13.9 0.00 0.02 0.02 80 1019.3
20260906200833 62 26 10.4 13.9 0.00 0.02 0.02 80 1019.3
20260906200329 62 36 11.3 13.0 0.00 0.02 0.02 80 1019.3
20260906195824 62 33 10.4 15.6 0.00 0.02 0.02 79 1019.1
20260906195321 62 25 13.0 15.6 0.00 0.02 0.02 79 1019.3
20260906194816 63 39 8.7 13.9 0.00 0.02 0.02 78 1019.3
20260906194307 62 1 9.6 14.8 0.00 0.02 0.02 78 1019.2
20260906193806 62 31 12.2 16.5 0.00 0.02 0.02 78 1019.3
20260906193301 62 19 10.4 18.2 0.00 0.02 0.02 77 1019.1
20260906192757 62 46 14.8 20.0 0.00 0.02 0.02 76 1019.1
20260906192251 62 26 12.2 16.5 0.00 0.02 0.02 77 1019.1
20260906191751 63 11 8.7 16.5 0.00 0.02 0.02 77 1019.1
20260906191246 62 49 13.0 20.9 0.00 0.02 0.02 79 1019.1
20260906190745 62 48 11.3 19.1 0.00 0.02 0.02 78 1019.2
20260906190240 62 21 14.8 20.9 0.00 0.02 0.02 78 1019.1
20260906185739 61 35 15.6 22.6 0.00 0.02 0.02 77 1019.2
20260906185238 62 35 13.0 18.2 0.00 0.02 0.02 78 1019.4
20260906184733 62 23 15.6 18.2 0.00 0.02 0.02 78 1019.6
20260906184228 62 42 20.0 21.7 0.00 0.02 0.02 77 1019.5
20260906183724 62 19 7.8 16.5 0.00 0.02 0.02 78 1019.5
20260906183220 62 38 20.0 22.6 0.00 0.02 0.02 77 1019.7
20260906182720 61 19 15.6 20.0 0.00 0.02 0.02 79 1019.3
20260906182216 61 12 10.4 20.9 0.00 0.02 0.02 79 1019.3
20260906181711 61 12 13.0 18.2 0.00 0.02 0.02 81 1019.4
20260906181202 61 25 12.2 21.7 0.00 0.02 0.02 81 1019.3
20260906180701 60 41 16.5 20.9 0.00 0.02 0.02 82 1019.2
20260906180156 59 48 19.1 23.5 0.00 0.02 0.02 85 1019.4
20260906175654 58 52 14.8 19.1 0.00 0.02 0.02 87 1019.8
20260906175150 57 37 12.2 13.0 0.00 0.02 0.02 86 1020.7
20260906174648 57 35 8.7 11.3 0.00 0.02 0.02 87 1020.7
20260906174143 57 8 7.8 10.4 0.00 0.02 0.02 87 1020.8
20260906173638 57 359 6.1 8.7 0.00 0.02 0.02 88 1021.2
20260906173134 57 322 3.5 6.1 0.00 0.02 0.02 90 1021.2
20260906172632 57 301 6.1 7.8 0.00 0.02 0.02 89 1021.5
20260906172128 57 355 7.8 11.3 0.00 0.02 0.02 88 1021.4
20260906171628 57 2 5.2 11.3 0.00 0.02 0.02 89 1021.3
20260906171124 57 23 5.2 9.6 0.00 0.02 0.02 91 1021.3
20260906170620 57 17 5.2 11.3 0.00 0.02 0.02 91 1021.0
20260906170119 57 14 7.8 13.9 0.00 0.02 0.02 91 1021.2
20260906165615 57 21 3.5 13.9 0.00 0.02 0.02 92 1021.2
20260906165111 57 24 12.2 13.9 0.00 0.02 0.02 91 1021.2
20260906164609 57 31 10.4 13.0 0.00 0.02 0.02 92 1021.4
20260906164105 58 47 9.6 14.8 0.00 0.02 0.02 93 1021.4
20260906163601 58 55 7.8 11.3 0.00 0.02 0.02 94 1021.2
20260906163056 58 35 9.6 11.3 0.00 0.02 0.02 94 1021.0
20260906162553 57 50 5.2 10.4 0.00 0.02 0.02 95 1021.0
20260906162048 57 38 5.2 9.6 0.00 0.02 0.02 95 1021.0
20260906161543 57 39 4.3 5.2 0.00 0.02 0.02 95 1020.9
20260906161042 56 53 4.3 7.0 0.00 0.02 0.02 95 1021.3
20260906160541 56 50 4.3 7.8 0.00 0.02 0.02 95 1021.2
20260906160040 56 29 5.2 6.1 0.00 0.02 0.02 95 1021.3
20260906155538 55 20 2.6 4.3 0.02 0.02 0.02 94 1021.4
20260906155035 55 11 5.2 6.1 0.02 0.02 0.02 94 1021.6
20260906154530 55 359 4.3 7.0 0.05 0.02 0.02 94 1021.6
20260906154028 55 351 4.3 7.0 0.07 0.01 0.01 93 1021.7
20260906153527 55 358 4.3 8.7 0.02 0.00 0.00 92 1022.0
20260906153023 56 344 7.0 8.7 0.00 0.00 0.00 91 1021.9
20260906152517 56 325 7.8 9.6 0.00 0.00 0.00 91 1021.9
20260906152016 55 341 7.8 10.4 0.00 0.00 0.00 91 1022.0
20260906151512 55 352 5.2 8.7 0.00 0.00 0.00 92 1022.0
20260906151008 55 329 8.7 13.9 0.00 0.00 0.00 91 1022.0
20260906150503 55 317 8.7 13.9 0.00 0.00 0.00 91 1021.8
20260906150002 55 327 11.3 15.6 0.00 0.00 0.00 91 1021.7
20260906145501 58 318 7.0 10.4 0.00 0.00 0.00 92 1022.3
20260906144956 58 330 4.3 8.7 0.00 0.00 0.00 91 1022.0
20260906144450 58 9 6.1 9.6 0.00 0.00 0.00 92 1021.7
20260906143945 58 56 6.1 13.0 0.00 0.00 0.00 92 1021.7
20260906143441 57 65 8.7 16.5 0.00 0.00 0.00 92 1021.7
20260906142936 57 59 13.0 17.4 0.00 0.00 0.00 93 1021.4
20260906142431 57 61 11.3 18.2 0.00 0.00 0.00 93 1021.0
20260906141926 57 51 13.9 15.6 0.00 0.00 0.00 93 1021.3
20260906141425 57 55 7.0 14.8 0.00 0.00 0.00 93 1021.6
20260906140920 57 65 13.0 14.8 0.00 0.00 0.00 93 1021.5
20260906140414 57 58 9.6 13.9 0.00 0.00 0.00 93 1021.7
20260906135913 57 63 13.0 18.2 0.00 0.00 0.00 93 1021.5
20260906135412 57 61 11.3 19.1 0.00 0.00 0.00 93 1021.4
20260906134908 57 53 12.2 15.6 0.00 0.00 0.00 92 1021.2
20260906134403 57 59 8.7 14.8 0.00 0.00 0.00 92 1021.6
20260906133857 57 54 9.6 15.6 0.00 0.00 0.00 92 1021.4
20260906133353 57 59 13.9 16.5 0.00 0.00 0.00 93 1021.2
20260906132849 56 59 13.9 16.5 0.00 0.00 0.00 93 1020.9
20260906132344 56 57 13.9 17.4 0.00 0.00 0.00 94 1021.0
20260906131840 56 63 15.6 17.4 0.00 0.00 0.00 94 1021.0
20260906131336 56 57 11.3 16.5 0.00 0.00 0.00 93 1020.9
20260906130831 56 57 14.8 16.5 0.00 0.00 0.00 93 1021.0
20260906130330 56 58 12.2 16.5 0.00 0.00 0.00 93 1021.5
20260906125830 56 59 13.0 16.5 0.00 0.00 0.00 93 1021.7
20260906125327 56 56 10.4 17.4 0.00 0.00 0.00 93 1021.5
20260906124822 56 48 13.0 16.5 0.00 0.00 0.00 94 1021.4
20260906124318 56 43 10.4 17.4 0.00 0.00 0.00 93 1021.5
20260906123817 56 41 9.6 19.1 0.00 0.00 0.00 93 1021.6
20260906123312 56 37 12.2 17.4 0.00 0.00 0.00 94 1021.4
20260906122811 55 38 13.9 17.4 0.00 0.00 0.00 94 1021.4
20260906122307 55 30 13.9 18.2 0.00 0.00 0.00 94 1021.4
20260906121803 55 31 13.0 19.1 0.00 0.00 0.00 94 1021.2
20260906121259 55 45 12.2 17.4 0.00 0.00 0.00 94 1021.2
20260906120755 55 37 13.0 16.5 0.00 0.00 0.00 95 1021.4
20260906120251 55 38 9.6 14.8 0.00 0.00 0.00 95 1021.4
20260906115746 55 27 13.0 17.4 0.00 0.00 0.00 95 1021.6
20260906115241 55 36 13.9 17.4 0.00 0.00 0.00 95 1021.6
20260906114740 55 33 13.0 14.8 0.00 0.00 0.00 94 1021.6
20260906114237 55 29 14.8 19.1 0.00 0.00 0.00 94 1021.4
20260906113732 55 39 11.3 21.7 0.00 0.00 0.00 94 1021.3
20260906113231 55 42 13.0 19.1 0.00 0.00 0.00 94 1021.4
20260906112730 55 40 16.5 19.1 0.00 0.00 0.00 94 1021.4
20260906112227 55 40 13.9 20.0 0.00 0.00 0.00 94 1021.5
20260906111726 55 45 12.2 19.1 0.00 0.00 0.00 94 1021.6
20260906111221 55 35 13.0 19.1 0.00 0.00 0.00 94 1021.7
20260906110716 55 30 13.9 18.2 0.00 0.00 0.00 93 1021.5
20260906110212 55 37 17.4 19.1 0.00 0.00 0.00 93 1021.5
20260906105705 55 40 10.4 20.0 0.00 0.00 0.00 93 1021.6
20260906105202 55 37 20.9 23.5 0.00 0.00 0.00 93 1021.4
20260906104701 55 34 13.9 19.1 0.00 0.00 0.00 93 1021.6
20260906104200 55 19 10.4 19.1 0.00 0.00 0.00 93 1021.6
20260906103658 55 30 16.5 22.6 0.00 0.00 0.00 93 1021.6
20260906103153 55 38 9.6 21.7 0.00 0.00 0.00 92 1021.4
20260906102649 55 33 18.2 21.7 0.00 0.00 0.00 93 1021.6
20260906102148 55 31 11.3 20.9 0.00 0.00 0.00 92 1021.7
20260906101648 55 21 14.8 17.4 0.00 0.00 0.00 93 1021.9
20260906101143 55 22 13.0 18.2 0.00 0.00 0.00 93 1022.0
20260906100638 55 16 13.0 21.7 0.00 0.00 0.00 93 1021.8
20260906100133 55 2 11.3 19.1 0.00 0.00 0.00 93 1021.8
20260906095628 55 31 14.8 20.9 0.00 0.00 0.00 93 1021.5
20260906095124 55 26 14.8 21.7 0.00 0.00 0.00 94 1021.4
20260906094622 55 16 11.3 19.1 0.00 0.00 0.00 94 1021.6
20260906094119 55 15 16.5 18.2 0.00 0.00 0.00 94 1021.5
20260906093614 55 28 13.9 19.1 0.00 0.00 0.00 94 1021.9
20260906093114 55 11 12.2 18.2 0.00 0.00 0.00 94 1021.8
20260906092609 55 22 12.2 18.2 0.00 0.00 0.00 94 1021.8
20260906092104 55 9 13.9 16.5 0.00 0.00 0.00 93 1021.9
20260906091600 55 350 13.9 19.1 0.00 0.00 0.00 93 1022.2
20260906091057 55 328 15.6 19.1 0.00 0.00 0.00 93 1022.3
20260906090557 55 343 12.2 14.8 0.00 0.00 0.00 93 1022.3
20260906090056 55 332 9.6 18.2 0.00 0.00 0.00 92 1022.5
20260906085555 55 5 12.2 20.9 0.00 0.00 0.00 92 1022.4
20260906085050 55 31 14.8 21.7 0.00 0.00 0.00 91 1021.9
20260906084545 55 32 19.1 21.7 0.00 0.00 0.00 91 1022.0
20260906084044 55 32 19.1 26.9 0.00 0.00 0.00 91 1022.3
20260906083540 55 26 14.8 28.7 0.00 0.00 0.00 91 1021.8
20260906083039 55 21 12.2 26.9 0.00 0.00 0.00 91 1022.0
20260906082535 55 34 25.2 26.1 0.00 0.00 0.00 92 1022.4
20260906082031 55 26 21.7 27.8 0.00 0.00 0.00 91 1022.3
20260906081526 55 35 16.5 23.5 0.00 0.00 0.00 91 1022.3
20260906081021 55 39 16.5 23.5 0.00 0.00 0.00 91 1022.3
20260906080517 55 29 16.5 23.5 0.00 0.00 0.00 90 1022.3
20260906080013 56 25 16.5 25.2 0.00 0.00 0.00 90 1022.4
20260906075507 56 30 23.5 26.1 0.00 0.00 0.00 89 1022.2
20260906075002 56 41 20.9 23.5 0.00 0.00 0.00 89 1022.3
20260906074457 56 31 17.4 23.5 0.00 0.00 0.00 89 1022.3
20260906073955 56 44 19.1 28.7 0.00 0.00 0.00 88 1022.3
20260906073450 56 39 17.4 23.5 0.00 0.00 0.00 89 1022.3
20260906072947 56 44 16.5 26.1 0.00 0.00 0.00 89 1022.3
20260906072442 57 42 21.7 25.2 0.00 0.00 0.00 88 1022.4
20260906071938 57 44 16.5 27.8 0.00 0.00 0.00 88 1022.4
20260906071434 57 39 13.9 25.2 0.00 0.00 0.00 87 1022.6
20260906070929 57 21 15.6 26.9 0.00 0.00 0.00 87 1022.5
20260906070425 57 33 18.2 26.1 0.00 0.00 0.00 87 1022.6
20260906065921 57 29 20.0 22.6 0.00 0.00 0.00 88 1022.7
20260906065415 57 33 16.5 25.2 0.00 0.00 0.00 87 1022.9
20260906064911 57 33 13.9 22.6 0.00 0.00 0.00 87 1022.9
20260906064407 57 38 19.1 26.1 0.00 0.00 0.00 87 1023.0
20260906063906 57 17 17.4 23.5 0.00 0.00 0.00 88 1023.0
20260906063356 57 27 14.8 21.7 0.00 0.00 0.00 87 1023.1
20260906062851 57 21 15.6 20.9 0.00 0.00 0.00 87 1023.0
20260906062350 57 23 12.2 22.6 0.00 0.00 0.00 87 1023.0
20260906061846 57 33 19.1 26.9 0.00 0.00 0.00 87 1022.9
20260906061342 57 33 7.8 13.0 0.00 0.00 0.00 88 1022.9
20260906060837 57 26 6.1 16.5 0.00 0.00 0.00 88 1023.1
20260906060335 57 28 12.2 19.1 0.00 0.00 0.00 88 1022.8
20260906055830 57 26 12.2 19.1 0.00 0.09 0.09 88 1022.8
20260906055326 57 21 12.2 20.0 0.00 0.09 0.09 88 1023.1
20260906054821 57 26 10.4 16.5 0.00 0.09 0.09 88 1023.1
20260906054315 57 24 13.9 17.4 0.00 0.09 0.09 88 1022.9
20260906053812 57 29 18.2 20.9 0.00 0.09 0.09 87 1022.7
20260906053307 57 25 10.4 20.0 0.00 0.09 0.09 87 1022.6
20260906052802 57 10 13.0 22.6 0.00 0.09 0.09 87 1022.7
20260906052259 57 21 13.9 17.4 0.00 0.09 0.09 87 1022.7
20260906051756 57 23 13.9 18.2 0.00 0.09 0.09 87 1022.9
20260906051255 57 27 8.7 19.1 0.00 0.09 0.09 87 1022.9
20260906050750 57 15 11.3 19.1 0.00 0.09 0.09 87 1022.8
20260906050246 57 7 10.4 18.2 0.00 0.09 0.09 87 1022.5
20260906045744 57 21 12.2 19.1 0.00 0.09 0.09 87 1022.7
20260906045239 57 24 13.9 18.2 0.00 0.09 0.09 86 1022.6
20260906044735 57 3 8.7 13.9 0.00 0.09 0.09 86 1023.4
20260906044230 57 3 13.9 14.8 0.00 0.09 0.09 86 1023.4
20260906043726 57 9 7.8 18.2 0.00 0.09 0.09 85 1022.8
20260906043222 57 10 11.3 17.4 0.00 0.09 0.09 85 1022.4
20260906042721 57 13 14.8 18.2 0.00 0.09 0.09 85 1022.4
20260906042220 57 12 12.2 18.2 0.00 0.09 0.09 86 1022.2
20260906041716 57 17 17.4 20.0 0.00 0.09 0.09 85 1022.2
20260906041211 57 16 14.8 22.6 0.00 0.09 0.09 85 1022.0
20260906040707 57 15 10.4 19.1 0.00 0.09 0.09 86 1022.0
20260906040202 57 6 8.7 20.0 0.00 0.09 0.09 85 1022.2
20260906035657 57 4 13.9 20.0 0.00 0.09 0.09 84 1022.3
20260906035153 57 19 12.2 17.4 0.00 0.09 0.09 85 1022.6
20260906034647 57 5 10.4 18.2 0.00 0.09 0.09 85 1022.6
20260906034142 57 18 12.2 18.2 0.00 0.09 0.09 85 1022.7
20260906033637 57 14 10.4 18.2 0.12 0.09 0.09 86 1022.6
20260906033132 57 8 13.9 20.9 0.40 0.09 0.09 86 1022.6
20260906032629 58 13 10.4 23.5 0.12 0.04 0.04 84 1022.7
20260906032128 60 359 11.3 16.5 0.00 0.02 0.02 72 1023.4
20260906031624 60 348 11.3 18.2 0.00 0.02 0.02 72 1023.3
20260906031119 60 18 14.8 21.7 0.00 0.02 0.02 72 1022.2
20260906030618 60 31 14.8 26.1 0.00 0.02 0.02 72 1022.0
20260906030114 60 31 23.5 25.2 0.00 0.02 0.02 71 1021.7
20260906025613 60 31 12.2 22.6 0.00 0.02 0.02 71 1021.7
20260906025112 60 30 16.5 26.1 0.00 0.02 0.02 71 1021.5
20260906024607 60 25 15.6 27.8 0.00 0.02 0.02 71 1021.3
20260906024101 60 19 19.1 23.5 0.00 0.02 0.02 70 1021.5
20260906023557 60 21 18.2 27.8 0.00 0.02 0.02 70 1021.3
20260906023052 60 26 21.7 24.3 0.00 0.02 0.02 69 1021.3
20260906022547 60 37 21.7 28.7 0.00 0.02 0.02 70 1021.0
20260906022042 60 32 16.5 21.7 0.00 0.02 0.02 70 1021.2
20260906021538 60 22 14.8 23.5 0.00 0.02 0.02 69 1021.4
20260906021036 61 35 20.0 24.3 0.00 0.02 0.02 69 1021.4
20260906020531 61 20 13.9 22.6 0.00 0.02 0.02 68 1021.3
20260906020031 61 23 15.6 22.6 0.00 0.02 0.02 68 1021.4
20260906015529 61 25 20.0 24.3 0.00 0.02 0.02 67 1021.4
20260906015024 61 38 15.6 20.9 0.00 0.02 0.02 67 1021.4
20260906014519 62 29 16.5 21.7 0.00 0.02 0.02 67 1021.4
20260906014015 62 30 11.3 20.9 0.00 0.02 0.02 66 1021.3
20260906013509 62 18 13.9 22.6 0.00 0.02 0.02 65 1021.3
20260906013000 63 51 13.9 17.4 0.00 0.02 0.02 64 1021.3
20260906012455 63 19 11.3 18.2 0.00 0.02 0.02 63 1021.2
20260906011954 64 25 19.1 20.9 0.00 0.02 0.02 62 1021.4
20260906011450 64 27 7.8 17.4 0.00 0.02 0.02 61 1021.4
20260906010944 65 29 12.2 16.5 0.00 0.02 0.02 60 1021.4
20260906010441 65 14 9.6 16.5 0.00 0.02 0.02 59 1021.3
20260906005937 65 27 8.7 16.5 0.00 0.02 0.02 58 1021.3
20260906005435 66 24 7.0 17.4 0.00 0.02 0.02 57 1021.5
20260906004928 66 21 13.9 17.4 0.00 0.02 0.02 57 1021.4
20260906004423 66 357 11.3 15.6 0.00 0.02 0.02 56 1021.5
20260906003919 67 11 9.6 17.4 0.00 0.02 0.02 55 1021.2
20260906003414 68 1 9.6 17.4 0.00 0.02 0.02 54 1021.5
20260906002908 68 16 14.8 18.2 0.00 0.02 0.02 53 1021.5
20260906002403 69 3 12.2 18.2 0.00 0.02 0.02 54 1021.5
20260906001858 69 20 14.8 16.5 0.00 0.02 0.02 52 1021.6
20260906001353 69 15 12.2 17.4 0.00 0.02 0.02 51 1021.4
20260906000848 69 19 8.7 14.8 0.00 0.02 0.02 51 1021.5
20260906000348 69 0 6.1 16.5 0.00 0.02 0.02 51 1021.6
20260905235843 69 22 11.3 17.4 0.00 0.02 0.02 51 1021.5
20260905235337 70 348 8.7 13.0 0.00 0.02 0.02 50 1021.8
20260905234833 70 40 14.8 17.4 0.00 0.02 0.02 50 1021.9
20260905234328 71 30 13.0 16.5 0.00 0.02 0.02 48 1021.8
20260905233823 70 13 6.1 13.0 0.00 0.02 0.02 48 1021.7
20260905233318 72 55 11.3 14.8 0.00 0.02 0.02 46 1021.7
20260905232817 72 46 9.6 17.4 0.00 0.02 0.02 46 1021.8